Flag for Canada

Past Weather in 49°54'19"N, 97°12'32"W, Canada — Yesterday and Last 2 Weeks

Now
73 °F

Mild.


Feels Like: 77 °F
Forecast: 78 / 60 °F
Wind: 5 mph from Northwest

Location: Winnipeg The Forks Man

Current Time: Jul 10, 2020 at 12:14:56 pm

Latest Report: Jul 10, 2020 at 11:00 am


Visibility: N/A

Pressure: 29.93 "Hg

Humidity: 55%

Dew Point: 56 °F

Location of 49°54'19"N, 97°12'32"WLocation

Past Weather in 49°54'19"N, 97°12'32"W — Graph

°F

49°54'19"N, 97°12'32"W Temperature Yesterday

Maximum temperature yesterday: 78 °F (at 7:00 pm)
Minimum temperature yesterday: 65 °F (at 6:00 am)
Average temperature yesterday: 71 °F

High & Low Weather Summary for the Past Weeks

 TemperatureHumidityPressure
High91 °F (Jul 3, 3:00 pm)94% (Jun 26, 5:00 am)30.06 "Hg (Jun 26, 5:00 am)
Low63 °F (Jul 10, 6:00 am)22% (Jul 3, 3:00 pm)29.52 "Hg (Jun 28, 5:00 pm)
Average76 °F61%29.80 "Hg
* Reported Jun 25 10:00 am — Jul 10 10:00 am, 49°54'19"N, 97°12'32"W. Weather by CustomWeather, © 2020

Note: Actual official high and low records may vary slightly from our data, if they occured in-between our weather recording intervals... More about our weather records

49°54'19"N, 97°12'32"W Weather History for the Previous 24 Hours

Scroll right to see more
 ConditionsComfort  
Time TempWeatherWind HumidityBarometerVisibility
10:00 am
Fri, Jul 10
72 °FMild.3 mph62%29.92 "HgN/A
9:00 am69 °FMild.3 mph68%29.93 "HgN/A
8:00 am67 °FMild.2 mph73%29.92 "HgN/A
7:00 am64 °FMild.1 mph82%29.91 "HgN/A
6:00 am63 °FMild.1 mph82%29.91 "HgN/A
5:00 am64 °FMild.2 mph80%29.89 "HgN/A
4:00 am64 °FMild.2 mph80%29.87 "HgN/A
3:00 am66 °FMild.2 mph74%29.86 "HgN/A
2:00 am67 °FMild.2 mph70%29.86 "HgN/A
1:00 am68 °FMild.2 mph70%29.85 "HgN/A
12:00 am68 °FMild.3 mph71%29.83 "HgN/A
11:00 pm
Thu, Jul 9
70 °FMild.2 mph67%29.81 "HgN/A
10:00 pm72 °FMild.2 mph63%29.79 "HgN/A
9:00 pm75 °FMild.3 mph55%29.76 "HgN/A
8:00 pm76 °FMild.6 mph49%29.75 "HgN/A
7:00 pm78 °FWarm.6 mph45%29.73 "HgN/A
6:00 pm78 °FWarm.7 mph46%29.71 "HgN/A
5:00 pm77 °FMild.6 mph47%29.71 "HgN/A
4:00 pm75 °FMild.6 mph50%29.70 "HgN/A
3:00 pm74 °FMild.7 mph49%29.69 "HgN/A
2:00 pm73 °FMild.6 mph52%29.68 "HgN/A
1:00 pm70 °FMild.7 mph63%29.68 "HgN/A
12:00 pm68 °FMild.9 mph65%29.65 "HgN/A
Weather by CustomWeather, © 2020

See weather overview